Weather in Zhilino

Russia / Perm Krai     57°28′14″N   56°47′17″E
temp.,
°C
wind,
m/s
gust,
m/s
humid.,
%
clouds,
%
prec.,
mm/h
press.,
hPa
HPBL,
m
6 august, fri
fri623:00+14nnw488614 0.0 1012199
02:00+14nnw5138243 0.0 1012441
05:00+13nnw513865 0.0 1013379
08:00+15nnw610780 0.0 1014496
11:00+19nnw79511 0.0 10141275
14:00+20nnw78410 0.0 10141587
17:00+20n68435 0.0 10141733
20:00+17n48590 0.0 1015299
7 august, sat
sat723:00+12nw34740 0.0 101661
02:00+11nw36810 0.0 101688
05:00+9nw49911 0.0 1017169
08:00+13nw5107221 0.0 1017484
11:00+17nw685799 0.0 10171252
14:00+20nnw68474 0.0 10161741
17:00+20nnw684520 0.0 10161941
20:00+17nnw376418 0.0 1017178
8 august, sun
sun823:00+12nw3585100 0.0 101871
02:00+12nw5128119 0.0 1018397
05:00+10nw5118810 0.0 1019371
08:00+13nnw610802 0.0 1020448
11:00+17nnw686652 0.0 1020912
14:00+21nnw675613 0.0 10201145
17:00+21nnw67545 0.0 10201276
20:00+18nnw47685 0.0 1021232
9 august, mon
mon923:00+13nnw338327 0.0 102136
02:00+12nw2290100 0.0 102226
05:00+10nw33915 0.0 102345
08:00+14nnw34785 0.0 1023218
11:00+18nnw3458100 0.0 1022783
14:00+20nw4548100 0.0 10221096
17:00+19nw4457100 0.0 1022666
20:00+17nnw2373100 0.0 102157
10 august, tue
tue1023:00+13nw22846 0.0 102111
02:00+14e007750 0.0 102111
05:00+13wsw1183100 0.1 102012
08:00+15ese228314 0.4 1019136
11:00+20sse22611 0.4 1018657
14:00+22s115553 0.0 10171109
17:00+23nne125761 0.0 10171039
20:00+20nne357274 0.0 1017130